Time,TemperatureF,DewpointF,PressureIn,WindDirection,WindDirectionDegrees,WindSpeedMPH,WindSpeedGustMPH,Humidity,HourlyPrecipIn,Conditions,Clouds,dailyrainin,SoftwareType,DateUTC
2013-02-17 00:17:00,51.6,-99.9,30.00,West,281,6.0,-999.0,0,-99.99,,,0.00,weatherlink.com 1.10,2013-02-17 05:17:00,
2013-02-17 00:32:00,51.0,-99.9,30.01,NNW,346,17.0,-999.0,0,-99.99,,,0.00,weatherlink.com 1.10,2013-02-17 05:32:00,
2013-02-17 01:18:00,49.6,-99.9,30.04,WNW,295,7.0,-999.0,0,-99.99,,,0.00,weatherlink.com 1.10,2013-02-17 06:18:00,
2013-02-17 01:48:00,48.6,-99.9,30.05,NNW,347,4.0,-999.0,0,-99.99,,,0.00,weatherlink.com 1.10,2013-02-17 06:48:00,
2013-02-17 02:18:00,47.1,-99.9,30.05,West,277,12.0,-999.0,0,-99.99,,,0.00,weatherlink.com 1.10,2013-02-17 07:18:00,
2013-02-17 02:33:00,47.0,-99.9,30.05,NW,315,9.0,-999.0,0,-99.99,,,0.00,weatherlink.com 1.10,2013-02-17 07:33:00,
2013-02-17 02:48:00,46.4,-99.9,30.05,NNW,337,12.0,-999.0,0,-99.99,,,0.00,weatherlink.com 1.10,2013-02-17 07:48:00,
2013-02-17 03:04:00,46.2,-99.9,30.06,NNW,338,13.0,-999.0,0,-99.99,,,0.00,weatherlink.com 1.10,2013-02-17 08:04:00,
2013-02-17 03:33:00,44.8,-99.9,30.06,NW,321,5.0,-999.0,0,-99.99,,,0.00,weatherlink.com 1.10,2013-02-17 08:33:00,
2013-02-17 03:48:00,44.3,-99.9,30.07,NNW,344,17.0,-999.0,0,-99.99,,,0.00,weatherlink.com 1.10,2013-02-17 08:48:00,
2013-02-17 04:03:00,44.5,-99.9,30.07,NNW,332,7.0,-999.0,0,-99.99,,,0.00,weatherlink.com 1.10,2013-02-17 09:03:00,
2013-02-17 04:34:00,43.6,-99.9,30.08,North,0,6.0,-999.0,0,-99.99,,,0.00,weatherlink.com 1.10,2013-02-17 09:34:00,
2013-02-17 04:49:00,43.5,-99.9,30.08,NW,321,3.0,-999.0,0,-99.99,,,0.00,weatherlink.com 1.10,2013-02-17 09:49:00,
2013-02-17 05:04:00,43.5,-99.9,30.08,NNW,334,4.0,-999.0,0,-99.99,,,0.00,weatherlink.com 1.10,2013-02-17 10:04:00,
2013-02-17 05:19:00,43.5,-99.9,30.09,North,349,1.0,-999.0,0,-99.99,,,0.00,weatherlink.com 1.10,2013-02-17 10:19:00,
2013-02-17 05:34:00,43.5,-99.9,30.10,WNW,284,7.0,-999.0,0,-99.99,,,0.00,weatherlink.com 1.10,2013-02-17 10:34:00,
2013-02-17 05:49:00,43.3,-99.9,30.10,NNW,339,1.0,-999.0,0,-99.99,,,0.00,weatherlink.com 1.10,2013-02-17 10:49:00,
2013-02-17 06:04:00,43.2,-99.9,30.11,NNW,328,7.0,-999.0,0,-99.99,,,0.00,weatherlink.com 1.10,2013-02-17 11:04:00,
2013-02-17 06:34:00,42.5,-99.9,30.13,NW,326,7.0,-999.0,0,-99.99,,,0.00,weatherlink.com 1.10,2013-02-17 11:34:00,
2013-02-17 07:20:00,42.2,-99.9,30.14,North,358,5.0,-999.0,0,-99.99,,,0.00,weatherlink.com 1.10,2013-02-17 12:20:00,
2013-02-17 07:35:00,42.6,-99.9,30.14,WNW,297,2.0,-999.0,0,-99.99,,,0.00,weatherlink.com 1.10,2013-02-17 12:35:00,
2013-02-17 07:50:00,42.9,-99.9,30.15,WNW,293,9.0,-999.0,0,-99.99,,,0.00,weatherlink.com 1.10,2013-02-17 12:50:00,
2013-02-17 08:05:00,43.2,-99.9,30.16,NW,321,7.0,-999.0,0,-99.99,,,0.00,weatherlink.com 1.10,2013-02-17 13:05:00,
2013-02-17 08:20:00,43.6,-99.9,30.17,North,352,6.0,-999.0,0,-99.99,,,0.00,weatherlink.com 1.10,2013-02-17 13:20:00,
2013-02-17 08:35:00,43.8,-99.9,30.18,NNW,328,5.0,-999.0,0,-99.99,,,0.00,weatherlink.com 1.10,2013-02-17 13:35:00,
2013-02-17 09:05:00,44.3,-99.9,30.19,NNW,337,15.0,-999.0,0,-99.99,,,0.00,weatherlink.com 1.10,2013-02-17 14:05:00,
2013-02-17 09:36:00,45.1,-99.9,30.20,NW,313,7.0,-999.0,0,-99.99,,,0.00,weatherlink.com 1.10,2013-02-17 14:36:00,
2013-02-17 10:06:00,45.8,-99.9,30.20,North,352,12.0,-999.0,0,-99.99,,,0.00,weatherlink.com 1.10,2013-02-17 15:06:00,
2013-02-17 10:21:00,46.5,-99.9,30.21,WNW,293,7.0,-999.0,0,-99.99,,,0.00,weatherlink.com 1.10,2013-02-17 15:21:00,
2013-02-17 10:36:00,47.1,-99.9,30.21,NW,310,7.0,-999.0,0,-99.99,,,0.00,weatherlink.com 1.10,2013-02-17 15:36:00,
2013-02-17 10:51:00,47.4,-99.9,30.21,NNW,333,7.0,-999.0,0,-99.99,,,0.00,weatherlink.com 1.10,2013-02-17 15:51:00,
2013-02-17 11:06:00,47.9,-99.9,30.22,NW,315,4.0,-999.0,0,-99.99,,,0.00,weatherlink.com 1.10,2013-02-17 16:06:00,
2013-02-17 11:21:00,47.9,-99.9,30.22,WNW,300,0.0,-999.0,0,-99.99,,,0.00,weatherlink.com 1.10,2013-02-17 16:21:00,
2013-02-17 11:51:00,49.1,-99.9,30.21,NW,310,1.0,-999.0,0,-99.99,,,0.00,weatherlink.com 1.10,2013-02-17 16:51:00,
2013-02-17 12:07:00,49.2,-99.9,30.21,North,356,2.0,-999.0,0,-99.99,,,0.00,weatherlink.com 1.10,2013-02-17 17:07:00,
2013-02-17 12:21:00,49.9,-99.9,30.21,WNW,297,0.0,-999.0,0,-99.99,,,0.00,weatherlink.com 1.10,2013-02-17 17:21:00,
2013-02-17 12:51:00,51.7,-99.9,30.21,WNW,303,0.0,-999.0,0,-99.99,,,0.00,weatherlink.com 1.10,2013-02-17 17:51:00,
2013-02-17 13:06:00,51.3,-99.9,30.20,North,350,4.0,-999.0,0,-99.99,,,0.00,weatherlink.com 1.10,2013-02-17 18:06:00,
2013-02-17 13:21:00,52.5,-99.9,30.20,WNW,297,5.0,-999.0,0,-99.99,,,0.00,weatherlink.com 1.10,2013-02-17 18:21:00,
2013-02-17 13:37:00,52.3,-99.9,30.19,NNW,332,0.0,-999.0,0,-99.99,,,0.00,weatherlink.com 1.10,2013-02-17 18:37:00,
2013-02-17 14:07:00,52.8,-99.9,30.19,NNE,20,1.0,-999.0,0,-99.99,,,0.00,weatherlink.com 1.10,2013-02-17 19:07:00,
2013-02-17 14:22:00,52.8,-99.9,30.18,NW,317,5.0,-999.0,0,-99.99,,,0.00,weatherlink.com 1.10,2013-02-17 19:22:00,
2013-02-17 14:37:00,53.5,-99.9,30.18,North,358,0.0,-999.0,0,-99.99,,,0.00,weatherlink.com 1.10,2013-02-17 19:37:00,
2013-02-17 15:07:00,54.4,-99.9,30.18,NNW,347,0.0,-999.0,0,-99.99,,,0.00,weatherlink.com 1.10,2013-02-17 20:07:00,
2013-02-17 15:52:00,53.3,-99.9,30.18,North,2,2.0,-999.0,0,-99.99,,,0.00,weatherlink.com 1.10,2013-02-17 20:52:00,
2013-02-17 16:37:00,53.5,-99.9,30.19,North,358,1.0,-999.0,0,-99.99,,,0.00,weatherlink.com 1.10,2013-02-17 21:37:00,
2013-02-17 16:53:00,52.9,-99.9,30.19,North,0,0.0,-999.0,0,-99.99,,,0.00,weatherlink.com 1.10,2013-02-17 21:53:00,
2013-02-17 17:08:00,52.6,-99.9,30.19,NW,315,1.0,-999.0,0,-99.99,,,0.00,weatherlink.com 1.10,2013-02-17 22:08:00,
2013-02-17 17:38:00,51.9,-99.9,30.19,NW,324,0.0,-999.0,0,-99.99,,,0.00,weatherlink.com 1.10,2013-02-17 22:38:00,
2013-02-17 17:53:00,51.4,-99.9,30.19,North,0,0.0,-999.0,0,-99.99,,,0.00,weatherlink.com 1.10,2013-02-17 22:53:00,
2013-02-17 18:08:00,50.8,-99.9,30.19,NNW,329,0.0,-999.0,0,-99.99,,,0.00,weatherlink.com 1.10,2013-02-17 23:08:00,
2013-02-17 18:38:00,48.6,-99.9,30.19,NNW,328,0.0,-999.0,0,-99.99,,,0.00,weatherlink.com 1.10,2013-02-17 23:38:00,
2013-02-17 18:53:00,47.9,-99.9,30.19,NNW,345,0.0,-999.0,0,-99.99,,,0.00,weatherlink.com 1.10,2013-02-17 23:53:00,
2013-02-17 19:08:00,47.7,-99.9,30.20,NNW,335,0.0,-999.0,0,-99.99,,,0.00,weatherlink.com 1.10,2013-02-18 00:08:00,
2013-02-17 19:23:00,47.4,-99.9,30.20,NNW,346,0.0,-999.0,0,-99.99,,,0.00,weatherlink.com 1.10,2013-02-18 00:23:00,
2013-02-17 19:38:00,47.0,-99.9,30.21,NNW,330,0.0,-999.0,0,-99.99,,,0.00,weatherlink.com 1.10,2013-02-18 00:38:00,
2013-02-17 19:53:00,46.8,-99.9,30.21,NNW,339,0.0,-999.0,0,-99.99,,,0.00,weatherlink.com 1.10,2013-02-18 00:53:00,
2013-02-17 20:08:00,46.7,-99.9,30.22,NNW,347,0.0,-999.0,0,-99.99,,,0.00,weatherlink.com 1.10,2013-02-18 01:08:00,
2013-02-17 20:24:00,46.7,-99.9,30.22,NW,322,0.0,-999.0,0,-99.99,,,0.00,weatherlink.com 1.10,2013-02-18 01:24:00,
2013-02-17 20:39:00,46.8,-99.9,30.22,NNW,332,0.0,-999.0,0,-99.99,,,0.00,weatherlink.com 1.10,2013-02-18 01:39:00,
2013-02-17 20:54:00,47.0,-99.9,30.22,NNW,336,0.0,-999.0,0,-99.99,,,0.00,weatherlink.com 1.10,2013-02-18 01:54:00,
2013-02-17 21:09:00,46.5,-99.9,30.23,NW,324,0.0,-999.0,0,-99.99,,,0.00,weatherlink.com 1.10,2013-02-18 02:09:00,
2013-02-17 21:24:00,46.7,-99.9,30.23,NNW,341,0.0,-999.0,0,-99.99,,,0.00,weatherlink.com 1.10,2013-02-18 02:24:00,
2013-02-17 21:39:00,46.7,-99.9,30.23,NNW,343,0.0,-999.0,0,-99.99,,,0.00,weatherlink.com 1.10,2013-02-18 02:39:00,
2013-02-17 21:54:00,45.8,-99.9,30.24,NNW,344,0.0,-999.0,0,-99.99,,,0.00,weatherlink.com 1.10,2013-02-18 02:54:00,
2013-02-17 22:24:00,46.5,-99.9,30.25,NW,318,0.0,-999.0,0,-99.99,,,0.00,weatherlink.com 1.10,2013-02-18 03:24:00,
2013-02-17 22:54:00,46.4,-99.9,30.25,North,354,0.0,-999.0,0,-99.99,,,0.00,weatherlink.com 1.10,2013-02-18 03:54:00,
2013-02-17 23:09:00,46.2,-99.9,30.25,NNW,328,0.0,-999.0,0,-99.99,,,0.00,weatherlink.com 1.10,2013-02-18 04:09:00,
2013-02-17 23:24:00,46.7,-99.9,30.25,NNW,329,0.0,-999.0,0,-99.99,,,0.00,weatherlink.com 1.10,2013-02-18 04:24:00,
2013-02-17 23:40:00,46.7,-99.9,30.25,NNW,346,0.0,-999.0,0,-99.99,,,0.00,weatherlink.com 1.10,2013-02-18 04:40:00,
2013-02-17 23:55:00,46.7,-99.9,30.25,NW,326,0.0,-999.0,0,-99.99,,,0.00,weatherlink.com 1.10,2013-02-18 04:55:00,